Content
SEND FEEDBACK

Daily
Averages
Monthly
Summary
United States of America

BOX ELDER, SOUTH DAKOTA


Home > North America > United States > South Dakota
Elevation: 3170 feet     Latitude: 44 09N     Longitude: 103 06W

WEATHER
 
SELECT A DAY
Number of Records: 204,091;   Date Range: 1/1/95 - 7/26/14
 
SHARE

PRINT THIS DATA

[ ← Previous Day ]
WEATHER ALMANAC - APRIL 29, 2013
[ Next Day → ]
[ °C ]   °F
Weather ElementAverageHighLow
Temperature58.6 °F74.3 °F (3:58 pm)43.2 °F (3:58 am)
Dewpoint39.1 °F43.7 °F (2:58 am)32.4 °F (3:58 pm)
Humidity53.9 %93 % (3:58 am)21 % (3:58 pm)
Barometer29.55 in29.83 in (1:58 am)29.33 in (6:58 pm)
Wind Speed18.7 mph47.2 mph (8:30 pm)
Wind Gust57.5 mph (8:40 pm)
Weather ElementAverage
Visibility10 mi
Wind DirectionSW (220 °)

Weather ElementTotal
Precipitation---
Heating Degree Days6.3 (Base 65)
Growing Degree Days8.8 (Base 50)
Averaged from 27 records on April 29, 2013
WEATHER CONDITIONS BREAKOUT
WIND DIRECTION BREAKOUT
WEATHER BY HOUR - APRIL 29, 2013
[ °C ]   °F
Local TimeTemperatureDewpointHumidityBarometerVisibilityWind DirectionWind SpeedGust SpeedPrecipitationEventsConditions
1:58 AM45.7 °F42.1 °F87 %29.83 in10.0 miSouth (170°)9.2 mphClear
2:58 AM46.0 °F43.7 °F92 %29.81 in10.0 miSouth (170°)9.2 mphMostly Cloudy
3:58 AM43.2 °F41.4 °F93 %29.80 in10.0 miSouth (180°)9.2 mphPartly Cloudy
4:58 AM44.4 °F41.0 °F88 %29.78 in10.0 miSouth (180°)10.4 mphClear
5:58 AM47.1 °F40.8 °F79 %29.73 in10.0 miSouth (190°)17.3 mphClear
6:58 AM48.6 °F40.6 °F74 %29.72 in10.0 miSouth (170°)15.0 mphClear
7:58 AM52.7 °F41.4 °F65 %29.70 in10.0 miSouth (190°)15.0 mphClear
8:58 AM56.8 °F41.2 °F56 %29.66 in10.0 miSouth (170°)23.0 mphClear
9:58 AM58.3 °F40.8 °F52 %29.62 in10.0 miSouth (170°)20.7 mph29.9 mphPartly Cloudy
10:58 AM61.7 °F42.1 °F49 %29.59 in10.0 miSouth (170°)20.7 mphPartly Cloudy
11:58 AM64.9 °F43.2 °F45 %29.55 in10.0 miSouth (170°)15.0 mphScattered Clouds
12:58 PM68.5 °F42.1 °F38 %29.50 in10.0 miSouth (170°)17.3 mphPartly Cloudy
1:58 PM71.2 °F37.2 °F29 %29.47 in10.0 miSouth (180°)13.8 mphPartly Cloudy
2:03 PM71.6 °F37.4 °F29 %29.50 in10.0 miSSW (210°)16.1 mph21.9 mphPartly Cloudy
2:58 PM71.8 °F32.5 °F24 %29.45 in10.0 miWSW (250°)10.4 mphScattered Clouds
3:58 PM74.3 °F32.4 °F21 %29.41 in10.0 miWest (270°)10.4 mphPartly Cloudy
4:58 PM72.9 °F34.2 °F24 %29.37 in10.0 miSouth (170°)2.3 mphPartly Cloudy
5:58 PM70.7 °F35.6 °F28 %29.35 in10.0 miVariable2.3 mphClear
6:58 PM69.4 °F36.0 °F29 %29.33 in10.0 miEast (90°)4.6 mphOvercast
7:58 PM65.5 °F35.4 °F33 %29.33 in10.0 miNorth (360°)18.4 mphPartly Cloudy
8:04 PM66.2 °F35.6 °F32 %29.36 in10.0 miNNW (330°)15.0 mph20.7 mphClear
8:30 PM62.6 °F39.2 °F42 %29.42 in10.0 miNNW (330°)47.2 mph56.4 mphLight Drizzle
8:40 PM57.2 °F41.0 °F55 %29.44 in10.0 miNNW (330°)44.9 mph57.5 mphPartly Cloudy
8:58 PM51.3 °F41.7 °F70 %29.46 in10.0 miNNW (330°)41.4 mph57.5 mph0.00 inPartly Cloudy
9:58 PM47.8 °F40.5 °F76 %29.53 in10.0 miNNW (330°)34.5 mph47.2 mphPartly Cloudy
10:58 PM46.9 °F37.4 °F69 %29.56 in10.0 miNNW (330°)33.4 mph46.0 mphMostly Cloudy
11:58 PM45.1 °F38.1 °F76 %29.60 in10.0 miNNW (330°)28.8 mph38.0 mphClear
Hourly data recorded from KRCA, located miles away from Box Elder, South Dakota







STORIES FROM OUR PARTNERS